Latest Weather Observations for Mount Wellington

IDT60801

Issued at 3:01 am EST Thursday 2 July 2015 (issued every 30 minutes, with the page automatically refreshed every 10 minutes)

About weather observations | Map of weather stations | Latest weather observations for TAS | Other Formats
Station Details ID: 094087 Name: MOUNT WELLINGTON Lat: -42.90 Lon: 147.24 Height: 1260.47 m
Data from the previous 72 hours. | See also: Recent months at Mount Wellington
Date/Time
EST
Temp
°C
App
Temp
°C
Dew
Point
Rel
Hum
%
Delta-T
°C
Wind Press
QNH
hPa
Press
MSL
hPa
Rain
since 9 am
mm
Dir
 
Spd
km/h
Gust
km/h
Spd
kts
Gust
kts
02/03:00am -3.4 -17.1 -4.1 95 0.1 WSW 59 76 32 41 - - 1.8
02/02:33am -3.1 -16.4 -3.8 95 0.1 WSW 57 78 31 42 - - 1.8
02/02:30am -3.1 -16.8 -3.8 95 0.1 WSW 59 78 32 42 - - 1.8
02/02:13am -2.9 -16.9 -3.6 95 0.1 WSW 61 83 33 45 - - 1.8
02/02:10am -2.9 -16.6 -3.6 95 0.1 WSW 59 83 32 45 - - 1.8
02/02:00am -2.6 -13.7 -3.1 96 0.1 WSW 46 78 25 42 - - 1.8
02/01:30am -2.6 -14.1 -3.1 96 0.1 WSW 48 67 26 36 - - 1.8
02/01:03am -2.6 -14.5 -3.1 96 0.1 WSW 50 70 27 38 - - 1.8
02/01:00am -2.6 -14.9 -3.1 96 0.1 WSW 52 70 28 38 - - 1.8
02/12:30am -2.0 -16.3 -2.7 95 0.2 WSW 63 91 34 49 - - 1.8
02/12:00am -1.7 -17.2 -2.8 92 0.3 W 69 89 37 48 - - 1.8
 
Date/Time
EST
Temp
°C
App
Temp
°C
Dew
Point
Rel
Hum
%
Delta-T
°C
Wind Press
QNH
hPa
Press
MSL
hPa
Rain
since 9 am
mm
Dir
 
Spd
km/h
Gust
km/h
Spd
kts
Gust
kts
01/11:48pm -1.6 -16.3 -2.4 94 0.2 W 65 100 35 54 - - 1.8
01/11:45pm -1.6 -14.5 -2.2 96 0.1 W 56 85 30 46 - - 1.8
01/11:42pm -1.5 -14.0 -2.1 96 0.1 W 54 76 29 41 - - 1.8
01/11:36pm -1.5 -15.0 -2.1 96 0.1 W 59 83 32 45 - - 1.8
01/11:30pm -1.4 -17.0 -2.0 96 0.2 W 70 95 38 51 - - 1.8
01/11:00pm -1.0 -15.6 -1.8 94 0.2 W 65 89 35 48 - - 1.8
01/10:30pm -1.2 -16.2 -1.8 96 0.2 WSW 67 93 36 50 - - 1.8
01/10:00pm -0.8 -17.8 -1.5 95 0.2 W 78 107 42 58 - - 1.8
01/09:49pm -0.6 -17.2 -1.3 95 0.2 W 76 117 41 63 - - 1.8
01/09:30pm -1.4 -17.4 -2.1 95 0.2 W 72 98 39 53 - - 1.8
01/09:00pm -1.6 -20.1 -2.6 93 0.3 W 85 109 46 59 - - 1.8
01/08:30pm -1.5 -19.9 -1.9 97 0.1 WSW 85 111 46 60 - - 1.8
01/08:17pm -1.1 -17.0 -1.4 98 0.1 WSW 72 98 39 53 - - 1.8
01/08:00pm -0.6 -15.4 -0.9 98 0.1 WSW 67 78 36 42 - - 1.8
01/07:52pm 0.0 -13.2 -0.3 98 0.1 WSW 59 74 32 40 - - 1.8
01/07:32pm 1.2 -11.5 0.9 98 0.1 W 57 78 31 42 - - 1.4
01/07:30pm 1.2 -12.2 0.9 98 0.1 W 61 78 33 42 - - 1.4
01/07:04pm 1.5 -13.6 1.2 98 0.1 WNW 70 91 38 49 - - 1.0
01/07:00pm 1.4 -13.7 1.1 98 0.1 WNW 70 85 38 46 - - 1.0
01/06:31pm 1.1 -14.1 0.8 98 0.1 NW 70 91 38 49 - - 1.0
01/06:30pm 1.1 -14.4 0.8 98 0.1 NW 72 91 39 49 - - 1.0
01/06:00pm 1.1 -14.8 0.8 98 0.1 WNW 74 100 40 54 - - 1.0
01/05:30pm 1.1 -13.1 0.8 98 0.1 WNW 65 95 35 51 - - 1.0
01/05:00pm 1.1 -12.4 0.8 98 0.1 NW 61 85 33 46 - - 0.8
01/04:30pm 1.3 -10.0 1.0 98 0.1 WNW 50 70 27 38 - - 0.8
01/04:00pm 1.5 -10.2 1.2 98 0.1 NW 52 70 28 38 - - 0.8
01/03:30pm 1.6 -9.3 1.3 98 0.1 WNW 48 69 26 37 - - 0.6
01/03:08pm 1.9 -8.0 1.6 98 0.1 WNW 43 69 23 37 - - 0.4
01/03:00pm 2.0 -7.9 1.7 98 0.1 WNW 43 56 23 30 - - 0.4
01/02:35pm 1.9 -10.5 1.6 98 0.1 WNW 56 80 30 43 - - 0.4
01/02:30pm 1.9 -9.3 1.6 98 0.1 WNW 50 67 27 36 - - 0.4
01/02:00pm 2.0 -9.2 1.7 98 0.1 WNW 50 70 27 38 - - 0.2
01/01:30pm 1.9 -9.7 1.6 98 0.1 NW 52 72 28 39 - - 0.2
01/01:23pm 1.9 -9.0 1.6 98 0.1 NW 48 72 26 39 - - 0.2
01/01:03pm 1.6 -6.5 1.3 98 0.1 NW 33 54 18 29 - - 0.2
01/01:00pm 1.6 -6.8 1.3 98 0.1 NW 35 54 19 29 - - 0.2
01/12:52pm 1.5 -6.0 1.2 98 0.1 NW 30 52 16 28 - - 0.2
01/12:30pm 1.3 -8.7 1.0 98 0.1 NW 43 56 23 30 - - 0.2
01/12:00pm 1.0 -9.2 0.7 98 0.1 NW 44 57 24 31 - - 0.0
01/11:51am 1.0 -9.0 0.7 98 0.1 WNW 43 61 23 33 - - 0.0
01/11:30am 0.9 -9.2 0.6 98 0.1 WNW 43 59 23 32 - - 0.0
01/11:00am 0.9 -10.5 0.5 97 0.2 WNW 50 65 27 35 - - 0.0
01/10:30am 0.9 -9.7 0.5 97 0.2 WNW 46 57 25 31 - - 0.0
01/10:00am 0.8 -11.4 0.2 96 0.2 W 54 69 29 37 - - 0.0
01/09:30am 0.7 -11.1 0.1 96 0.2 W 52 80 28 43 - - 0.0
01/09:00am 0.5 -10.2 -0.1 96 0.2 W 46 65 25 35 - - 0.0
01/08:31am 0.4 -11.5 0.0 97 0.2 W 52 76 28 41 - - 0.0
01/08:30am 0.5 -11.0 0.1 97 0.2 W 50 69 27 37 - - 0.0
01/08:00am 0.4 -12.4 0.0 97 0.2 W 57 70 31 38 - - 0.0
01/07:30am 0.7 -12.1 0.3 97 0.2 W 57 72 31 39 - - 0.0
01/07:00am 0.7 -12.1 0.1 96 0.2 W 57 72 31 39 - - 0.0
01/06:30am 1.5 -10.9 -0.9 84 0.9 W 54 70 29 38 - - 0.0
01/06:12am 1.6 -10.5 -1.6 79 1.2 W 52 72 28 39 - - 0.0
01/06:00am 1.3 -10.7 -1.1 84 0.9 W 52 67 28 36 - - 0.0
01/05:30am 0.8 -12.0 -0.1 94 0.4 W 57 69 31 37 - - 0.0
01/05:00am 0.8 -10.3 -0.3 92 0.4 W 48 61 26 33 - - 0.0
01/04:30am 0.6 -10.6 -1.0 89 0.7 W 48 57 26 31 - - 0.0
01/04:00am 1.2 -11.8 -1.7 81 1.1 W 57 67 31 36 - - 0.0
01/03:30am 0.8 -11.7 -1.9 82 1.1 W 54 67 29 36 - - 0.0
01/03:00am 0.7 -11.3 -0.9 89 0.6 W 52 63 28 34 - - 0.0
01/02:30am 0.6 -10.2 -0.8 90 0.5 W 46 57 25 31 - - 0.0
01/02:00am 0.8 -10.0 -0.6 90 0.5 W 46 57 25 31 - - 0.0
01/01:30am 0.3 -10.7 -2.2 83 1.0 W 46 63 25 34 - - 0.0
01/01:00am 0.0 -11.2 -0.7 95 0.3 W 48 57 26 31 - - 0.0
01/12:30am 0.5 -10.4 -0.9 90 0.6 W 46 57 25 31 - - 0.0
01/12:00am 0.2 -10.6 -0.6 94 0.3 W 46 56 25 30 - - 0.0
 
Date/Time
EST
Temp
°C
App
Temp
°C
Dew
Point
Rel
Hum
%
Delta-T
°C
Wind Press
QNH
hPa
Press
MSL
hPa
Rain
since 9 am
mm
Dir
 
Spd
km/h
Gust
km/h
Spd
kts
Gust
kts
30/11:30pm 0.2 -10.6 -0.5 95 0.3 W 46 61 25 33 - - 0.0
30/11:00pm 0.4 -9.5 -0.6 93 0.4 W 41 54 22 29 - - 0.0
30/10:30pm 0.3 -8.0 -0.3 96 0.2 W 33 43 18 23 - - 0.0
30/10:00pm 0.3 -8.4 -0.3 96 0.2 W 35 44 19 24 - - 0.0
30/09:30pm 0.5 -6.4 -0.1 96 0.2 W 26 37 14 20 - - 0.0
30/09:00pm 0.5 -5.3 -0.1 96 0.2 W 20 30 11 16 - - 0.0
30/08:30pm 0.5 -7.6 -0.1 96 0.2 W 32 43 17 23 - - 0.0
30/08:00pm 0.3 -7.8 -0.1 97 0.2 W 32 37 17 20 - - 0.0
30/07:30pm 0.6 -7.4 0.2 97 0.2 W 32 41 17 22 - - 0.0
30/07:00pm 0.7 -7.0 0.1 96 0.2 W 30 39 16 21 - - 0.0
30/06:30pm 0.6 -7.5 -0.1 95 0.3 WSW 32 39 17 21 - - 0.0
30/06:00pm 0.7 -7.4 -0.3 93 0.4 WSW 32 39 17 21 - - 0.0
30/05:30pm 0.8 -6.2 -0.2 93 0.4 W 26 37 14 20 - - 0.0
30/05:00pm 1.4 -6.3 0.2 92 0.5 W 30 37 16 20 - - 0.0
30/04:30pm 1.4 -5.9 0.1 91 0.5 WSW 28 37 15 20 - - 0.0
30/04:14pm 1.6 -6.1 0.0 89 0.6 WSW 30 48 16 26 - - 0.0
30/04:00pm 2.1 -5.9 0.5 89 0.7 WSW 32 43 17 23 - - 0.0
30/03:30pm 3.3 -4.4 0.0 79 1.3 W 30 41 16 22 - - 0.0
30/03:27pm 3.4 -4.3 -0.4 76 1.5 W 30 41 16 22 - - 0.0
30/03:00pm 3.2 -2.5 0.6 83 1.1 W 20 32 11 17 - - 0.0
30/02:30pm 4.2 -3.0 0.4 76 1.6 W 28 39 15 21 - - 0.0
30/02:00pm 4.0 -2.1 0.5 78 1.5 W 22 35 12 19 - - 0.0
30/01:30pm 3.8 -2.7 0.5 79 1.4 W 24 33 13 18 - - 0.0
30/01:00pm 4.8 -0.7 0.4 73 1.8 W 19 26 10 14 - - 0.0
30/12:30pm 4.6 -1.7 -0.8 68 2.2 W 22 37 12 20 - - 0.0
30/12:00pm 4.8 -2.7 -1.6 63 2.5 W 28 37 15 20 - - 0.0
30/11:30am 4.2 -4.0 -1.0 69 2.1 W 32 39 17 21 - - 0.0
30/11:00am 3.6 -5.1 -0.6 74 1.7 W 35 44 19 24 - - 0.0
30/10:30am 3.7 -5.5 -1.6 68 2.1 W 37 48 20 26 - - 0.0
30/10:00am 2.9 -7.4 -1.3 74 1.6 WSW 43 52 23 28 - - 0.0
30/09:30am 2.3 -8.5 -0.6 81 1.1 WSW 46 56 25 30 - - 0.0
30/09:00am 1.9 -9.3 -0.8 82 1.1 WSW 48 57 26 31 - - 0.0
30/08:30am 1.6 -10.4 -1.1 82 1.0 WSW 52 61 28 33 - - 0.0
30/08:00am 1.4 -10.6 -1.2 83 1.0 WSW 52 61 28 33 - - 0.0
30/07:30am 1.3 -10.8 -1.4 82 1.0 WSW 52 59 28 32 - - 0.0
30/07:00am 2.0 -10.9 -2.3 73 1.6 WSW 56 65 30 35 - - 0.0
30/06:30am 2.5 -11.1 -3.2 66 2.1 WSW 59 69 32 37 - - 0.0
30/06:00am 2.6 -10.6 -3.3 65 2.2 WSW 57 69 31 37 - - 0.0
30/05:30am 2.8 -10.3 -3.3 64 2.3 WSW 56 69 30 37 - - 0.0
30/05:01am 2.9 -10.2 -3.9 61 2.5 WSW 56 74 30 40 - - 0.0
30/05:00am 3.2 -10.1 -4.0 59 2.6 WSW 57 74 31 40 - - 0.0
30/04:30am 2.9 -10.4 -3.6 62 2.4 WSW 57 69 31 37 - - 0.0
30/04:00am 3.3 -9.9 -4.9 55 2.9 WSW 56 69 30 37 - - 0.0
30/03:30am 3.8 -9.5 -5.4 51 3.3 WSW 56 69 30 37 - - 0.0
30/03:00am 3.5 -8.6 -5.2 53 3.1 W 50 65 27 35 - - 0.0
30/02:30am 3.8 -8.3 -5.4 51 3.3 W 50 59 27 32 - - 0.0
30/02:00am 3.6 -8.5 -5.3 52 3.2 W 50 61 27 33 - - 0.0
30/01:30am 4.1 -8.5 -5.9 48 3.5 WSW 52 61 28 33 - - 0.0
30/01:00am 3.9 -9.4 -5.3 51 3.3 WSW 56 67 30 36 - - 0.0
30/12:30am 3.9 -9.3 -4.8 53 3.2 W 56 69 30 37 - - 0.0
30/12:00am 4.0 -9.2 -4.9 52 3.2 WSW 56 65 30 35 - - 0.0
 
Date/Time
EST
Temp
°C
App
Temp
°C
Dew
Point
Rel
Hum
%
Delta-T
°C
Wind Press
QNH
hPa
Press
MSL
hPa
Rain
since 9 am
mm
Dir
 
Spd
km/h
Gust
km/h
Spd
kts
Gust
kts
29/11:30pm 4.0 -9.2 -4.7 53 3.2 W 56 65 30 35 - - 0.0
29/11:00pm 3.6 -9.6 -4.1 57 2.8 WSW 56 65 30 35 - - 0.0
29/10:30pm 4.1 -7.7 -5.6 49 3.5 WSW 48 59 26 32 - - 0.0
29/10:00pm 4.1 -8.1 -5.6 49 3.5 WSW 50 63 27 34 - - 0.0
29/09:30pm 4.3 -7.9 -6.0 47 3.6 WSW 50 61 27 33 - - 0.0
29/09:00pm 3.9 -7.9 -5.6 50 3.4 WSW 48 61 26 33 - - 0.0
29/08:30pm 3.5 -8.9 -4.4 56 2.9 WSW 52 59 28 32 - - 0.0
29/08:00pm 3.5 -9.3 -4.4 56 2.9 WSW 54 65 29 35 - - 0.0
29/07:30pm 3.4 -9.7 -3.6 60 2.6 WSW 56 65 30 35 - - 0.0
29/07:00pm 3.2 -9.5 -3.1 63 2.4 WSW 54 63 29 34 - - 0.0
29/06:30pm 3.3 -9.7 -2.8 64 2.3 WSW 56 65 30 35 - - 0.0
29/06:00pm 3.2 -9.3 -2.1 68 2.0 WSW 54 65 29 35 - - 0.0
29/05:30pm 3.0 -8.7 -1.7 71 1.8 WSW 50 61 27 33 - - 0.0
29/05:00pm 3.5 -8.3 -2.2 66 2.2 WSW 50 63 27 34 - - 0.0
29/04:30pm 4.0 -8.9 -2.4 63 2.5 WSW 56 70 30 38 - - 0.0
29/04:00pm 3.7 -9.2 -0.3 75 1.6 WSW 57 69 31 37 - - 0.0
29/03:30pm 4.4 -9.3 -0.8 69 2.1 WSW 61 76 33 41 - - 0.0
29/03:00pm 4.3 -8.5 -0.1 73 1.8 WSW 57 69 31 37 - - 0.0
29/02:30pm 4.6 -8.0 0.0 72 1.9 WSW 56 65 30 35 - - 0.0
29/02:00pm 5.0 -7.7 -0.2 69 2.1 WSW 56 70 30 38 - - 0.0
29/01:30pm 5.6 -6.9 -1.5 60 2.9 WSW 54 74 29 40 - - 0.0
29/01:06pm 5.8 -5.6 -2.0 57 3.1 WSW 48 74 26 40 - - 0.0
29/01:00pm 5.9 -5.9 -2.4 55 3.3 WSW 50 65 27 35 - - 0.0
29/12:30pm 6.6 -5.4 -3.6 48 3.9 WSW 50 67 27 36 - - 0.0
29/12:22pm 6.6 -5.7 -3.3 49 3.8 WSW 52 70 28 38 - - 0.0
29/12:00pm 6.8 -6.1 -4.9 43 4.4 WSW 54 70 29 38 - - 0.0
29/11:30am 5.9 -7.1 -3.2 52 3.5 WSW 56 65 30 35 - - 0.0
29/11:00am 5.5 -7.4 -2.3 57 3.1 WSW 56 67 30 36 - - 0.0
29/10:30am 4.2 -7.3 -0.2 73 1.8 WSW 50 59 27 32 - - 0.0
29/10:13am 4.0 -7.9 0.0 75 1.6 WSW 52 72 28 39 - - 0.0
29/10:00am 3.6 -9.2 0.1 78 1.4 WSW 57 70 31 38 - - 0.0
29/09:30am 3.4 -10.9 -0.1 78 1.4 WSW 65 76 35 41 - - 0.0
29/09:00am 2.7 -12.1 -0.4 80 1.2 WSW 67 78 36 42 - - 0.0
29/08:30am 2.9 -10.8 -1.1 75 1.6 WSW 61 83 33 45 - - 0.0
29/08:24am 2.5 -10.8 -0.4 81 1.2 WSW 59 80 32 43 - - 0.0
29/08:00am 1.9 -10.0 -0.3 85 0.9 W 52 67 28 36 - - 0.0
29/07:49am 2.2 -9.8 -1.1 79 1.3 W 52 70 28 38 - - 0.0
29/07:30am 1.6 -10.2 0.3 91 0.5 W 52 69 28 37 - - 0.0
29/07:22am 1.9 -9.2 0.3 89 0.6 W 48 69 26 37 - - 0.0
29/07:00am 2.2 -8.6 -0.5 82 1.1 W 46 61 25 33 - - 0.0
29/06:30am 1.7 -8.5 -0.1 88 0.7 W 43 56 23 30 - - 0.0
29/06:00am 2.1 -8.3 -0.2 85 0.9 W 44 59 24 32 - - 0.0
29/05:43am 2.1 -9.8 -0.2 85 0.9 W 52 70 28 38 - - 0.0
29/05:30am 2.2 -9.7 -0.4 83 1.0 W 52 69 28 37 - - 0.0
29/05:17am 2.1 -10.7 0.2 87 0.8 W 57 78 31 42 - - 0.0
29/05:00am 2.0 -12.3 0.2 88 0.7 WSW 65 80 35 43 - - 0.0
29/04:35am 1.8 -12.8 0.8 93 0.4 WSW 67 96 36 52 - - 0.0
29/04:30am 1.8 -12.8 0.8 93 0.4 WSW 67 83 36 45 - - 0.0
29/04:06am 1.9 -12.0 0.6 91 0.5 WSW 63 82 34 44 - - 0.0
29/04:00am 1.8 -11.3 0.6 92 0.5 WSW 59 76 32 41 - - 0.0
29/03:30am 2.1 -12.6 0.2 87 0.8 WSW 67 85 36 46 - - 0.0
29/03:02am 2.0 -13.6 0.2 88 0.7 WSW 72 91 39 49 - - 0.0

Other Formats:

Comma delimited format used in spreadsheet applications
http://www.bom.gov.au/fwo/IDT60801/IDT60801.95979.axf

JavaScript Object Notation format (JSON) in row-major order
http://www.bom.gov.au/fwo/IDT60801/IDT60801.95979.json